Back to catalog

SPRITE-SAT

RISING

AliveScienceSSO
NORAD 33494·PAYLOAD·🇯🇵 Japan

Launched Jan 23, 2009 from Tanegashima Space Center

Loading…

Next Passes (next 24 hours)

TLE

FreshSource: Space-Track

Epoch: Sep 14, 2026, 12:41 UTC

1 33494U 09002C   26257.52884975  .00000403  00000-0  67039-4 0  9990
2 33494  98.1415 163.1568 0004789  79.3453 280.8295 14.75439734946989

Track SPRITE-SAT in real time with AllMySat

Download on the App Store